SHIYAN 30 01

导读

SHIYAN 30 01(试验三十号卫星01星)是中国于北京时间2025年9月29日在西昌卫星发射中心,通过长征二号丁运载火箭发射的科学试验卫星,与试验三十号02星一同进入预定轨道。该卫星主要承担对地观测技术的试验验证任务,是中国长征系列运载火箭第598次飞行任务,发射任务获得圆满成功,将推动我国对地观测领域相关技术的发展验证。

Basic Information
目录编号:
65851
目录名称:
SHIYAN 30 01
国际标识:
2025-222A
轨道中心:
EARTH
卫星名称:
SHIYAN 30 01
卫星全名:
SHIYAN 30 01
卫星状态:
在轨 (已飞行258 天)
发射日期:
2025-09-29 UTC
国别 :
中国 (CN)
星等 :
--
Orbit Information
数据来源 国际轨道数据 AOE轨道数据
星历时间 2026-06-15T00:23:36+0800
7小时前
查看轨道信息
2026-06-15T02:00:00+0800
5小时前
查看轨道信息
半长轴 6970.578km 6970.592km
偏心率 0.0001138 0.0000859
轨道倾角 34.989° 34.990°
近地点辐角 71.469° 68.948°
升交点赤经 277.005° 276.612°
平近点角 288.614° 291.175°
近地点 591.647km 591.856km
远地点 593.235km 593.054km
周期 96.530分钟 96.530分钟
每日圈数 14.917623 14.917579
Detailed Information
使用方式:
暂无
2D Orbit Map
3D Orbit Map
Orbit Altitude Analysis Chart
Orbit Inclination Analysis Chart
Orbit Comprehensive Analysis Chart
View Comprehensive Chart